Location: Howell Woods
(35.3600°N, 78.2900°W)
Time: 22:41:41
(UTC-05:00)

N. Korean satellite - Visible Passes

Search period start: 05 December 2021 00:00
Search period end: 15 December 2021 00:00
Orbit: 446 x 495 km, 97.3° (Epoch: 05 December)

Date Brightness Start Highest point End Pass type
(mag) Time Alt. Az. Time Alt. Az. Time Alt. Az.
05 Dec 6.5 05:41:21 10° N 05:44:38 51° WNW 05:47:54 10° SSW visible
05 Dec 10.0 17:47:10 10° WSW 17:48:43 12° W 17:50:16 10° WNW visible
06 Dec 7.1 05:12:49 10° NNE 05:16:08 54° E 05:19:27 10° S visible
07 Dec 9.0 04:44:57 10° NE 04:47:32 20° E 04:50:08 10° SSE visible
07 Dec 8.0 06:18:24 10° NNW 06:20:32 16° WNW 06:22:41 10° WSW visible
08 Dec 6.8 05:49:00 10° N 05:52:10 39° WNW 05:55:20 10° SW visible
09 Dec 6.5 05:20:18 10° NNE 05:23:41 73° ESE 05:27:03 10° S visible
09 Dec 9.3 17:24:47 10° SSW 17:27:38 23° W 17:30:27 10° NW visible
10 Dec 8.6 04:52:11 10° NE 04:55:05 26° E 04:57:58 10° SSE visible
10 Dec 8.2 06:26:24 10° NW 06:27:59 13° WNW 06:29:35 10° W visible
11 Dec 9.9 04:25:34 10° E 04:26:22 11° E 04:27:10 10° ESE visible
11 Dec 7.1 05:58:04 20° NNW 05:59:37 30° WNW 06:02:38 10° SW visible
12 Dec 6.2 05:29:42 32° N 05:31:08 85° WNW 05:34:32 10° SSW visible
12 Dec 9.6 17:32:39 10° SW 17:35:07 18° W 17:37:34 10° NW visible
13 Dec 8.1 05:01:14 24° NE 05:02:32 33° E 05:05:40 10° SSE visible
13 Dec 8.4 06:35:20 10° WNW 06:35:21 10° WNW 06:35:53 10° WNW visible
14 Dec 9.6 04:32:41 12° ENE 04:33:50 14° E 04:35:39 10° SE visible
14 Dec 7.5 06:06:47 24° WNW 06:06:59 24° WNW 06:09:48 10° SW visible
